AQUA (27424 NORAD) Tracking and Keplerian Element Data

This shows tracking and keplerian element data for the satellite.

Feedback or suggestion? Click here.




ElementValue
Catalog27424
NameAQUA
Epoch Orbit8504
Epoch Day270.18594611
Epoch Year2022
RAAN211.1445
Inclination98.2536
Eccentricity8.29E-05
Argument of Perigee63.0443
Mean Anonmoly48.5005
Mean Motion14.57398524
Decay Rate6.35E-06
L11 27424U 02022A 22270.18594611 .00000635 00000+0 15006-3 0 9991
L22 27424 98.2536 211.1445 0000829 63.0443 48.5005 14.57398524 85048

Live tracking and technical data element details for AQUA (NORAD 27424). AQUA can be tracked NOW for your location showing map with azimuth and elevation plus other details from your city location.

Track the satellite on the map from your city or location and see movement details for azimuth, elevation, latitude, longitude, range, height, and movement on the map or in text.







IsCatalogInMostPopularTable: catalog: 27424, numindb: 676
Update: records affected: 1



GetName: 27424 AQUA

Hit Count: updated at: Fri, 30 Sep 2022 02:19:03 GMT